EHI
1 1 3 3 1 0 0 0 0 0 0 0 0 0 0 0 0 0 0 5 14 17 11 9 8 6 4 4 3 3 3 3 2 1 0 0 0 0 0 0 0 0 0 0 0 0 0 0 0
1 2 2 2 0 0 0 0 0 0 0 0 0 0 0 0 0 0 2 7 14 17 13 11 11 9 5 3 2 2 2 3 2 1 0 0 0 0 0 0 0 0 0 0 0 0 0 0 0
2 2 2 1 0 0 0 0 1 1 0 0 0 0 0 1 2 2 4 11 16 17 15 16 18 14 7 4 3 2 3 2 1 0 0 0 0 0 0 0 0 0 0 0 0 0 0 0 0
1 1 1 0 0 0 0 1 2 2 1 0 0 0 0 3 6 7 8 13 19 20 18 21 22 17 10 6 4 4 3 2 1 0 0 0 0 0 0 0 0 0 0 0 0 0 0 0 0
0 0 0 0 0 0 0 1 3 3 2 1 0 0 1 7 13 13 10 13 20 23 22 23 24 19 11 7 5 4 3 2 1 0 0 0 0 0 0 0 0 0 0 0 0 0 0 0 0
0 0 0 0 0 0 1 2 4 4 3 3 2 1 4 13 19 17 13 14 19 24 23 22 22 18 11 7 5 4 4 3 2 1 0 0 0 0 0 0 0 0 0 0 0 0 0 0 0
0 0 0 0 0 0 1 2 3 2 2 4 4 3 8 18 23 21 19 18 20 24 25 22 18 14 10 8 7 6 5 4 3 1 0 0 0 0 0 0 0 0 0 0 0 0 0 0 0
0 0 0 0 0 0 0 1 1 1 2 5 5 5 10 21 30 30 27 24 22 25 25 22 16 12 9 8 7 7 6 5 3 1 1 0 0 0 0 0 0 0 0 0 0 0 0 0 1
0 0 0 0 0 0 0 1 2 4 7 8 9 10 16 28 40 43 38 31 27 25 24 21 17 12 9 8 7 6 5 4 3 2 1 0 0 0 0 0 0 0 0 0 0 0 0 0 1
0 0 0 0 0 1 2 2 5 10 13 14 16 18 23 34 46 51 46 38 31 25 20 18 16 12 10 9 7 5 4 3 3 2 1 1 0 0 0 0 0 0 0 0 0 1 0 0 1
0 0 0 0 1 3 4 5 8 12 15 18 21 22 25 32 43 49 48 42 33 26 20 17 13 10 10 9 7 5 3 3 3 3 2 2 1 0 0 0 0 0 0 0 0 0 0 0 0
0 0 1 1 2 4 6 8 11 14 18 23 26 25 24 27 35 42 44 41 34 29 25 19 12 9 8 8 7 5 3 3 3 3 3 3 2 1 0 0 0 0 0 0 0 0 0 0 0
0 1 2 2 2 3 5 9 15 20 25 30 32 29 25 25 31 38 41 41 38 35 31 24 16 12 10 9 7 5 3 3 3 3 3 3 2 1 0 0 0 1 0 0 0 0 0 0 0
1 1 2 2 1 1 3 9 17 25 33 37 35 30 27 28 34 40 43 43 41 38 35 30 24 19 15 11 8 4 3 3 3 2 3 3 1 0 0 0 0 0 0 0 0 0 0 0 0
0 1 1 1 1 1 2 8 18 29 38 42 38 33 31 34 40 45 45 43 42 40 37 33 29 25 20 14 9 5 3 3 3 3 3 2 1 0 0 0 0 0 0 0 0 0 0 0 0
0 0 0 0 1 1 2 7 19 33 43 46 44 40 39 42 48 49 47 45 43 42 38 33 30 26 21 16 12 7 5 5 4 4 2 1 0 0 0 0 0 0 0 0 0 0 0 0 0
0 0 0 0 1 2 2 6 17 33 44 49 49 49 48 50 53 53 52 50 48 44 39 34 30 25 21 18 14 9 6 6 6 4 2 0 0 0 0 0 0 0 0 0 0 0 0 0 0
0 0 0 0 1 2 3 7 16 31 43 49 51 54 55 55 56 58 58 55 51 45 39 35 31 25 19 17 14 9 7 7 7 5 3 1 0 0 0 0 0 0 0 0 0 0 0 0 0
0 0 0 0 0 2 4 8 17 31 41 48 54 58 59 57 58 61 63 59 52 44 39 36 32 26 20 15 12 8 6 6 5 5 3 2 1 0 0 0 0 0 0 0 0 0 0 0 0
0 0 0 0 0 1 3 7 16 29 39 48 56 60 60 59 59 62 63 61 53 44 38 33 29 24 19 14 11 7 4 2 2 3 3 3 2 1 1 0 0 0 0 0 0 0 0 0 0
0 0 0 0 0 1 2 5 12 24 37 48 56 59 59 59 59 59 61 59 53 45 37 30 24 20 17 15 12 8 4 1 1 2 3 3 3 2 1 0 0 0 0 0 0 0 0 0 0
0 0 0 0 0 0 1 3 8 21 36 47 53 55 56 56 56 56 58 56 50 44 37 29 23 18 16 15 14 12 7 2 1 1 2 3 3 3 2 1 0 0 0 0 0 0 0 0 0
0 0 0 0 0 0 0 1 4 15 30 40 46 51 53 53 52 55 56 51 43 39 36 30 24 19 15 14 14 13 9 3 0 0 1 2 3 4 3 2 0 0 0 0 0 0 0 0 0
0 0 0 0 0 0 0 0 2 8 21 33 39 45 49 48 50 54 53 45 38 37 36 31 24 19 16 14 14 14 10 3 0 0 0 1 3 3 3 2 1 0 0 0 0 0 0 0 0
0 0 0 0 0 0 0 0 1 5 16 29 38 41 43 43 47 50 48 40 36 37 37 32 26 21 18 16 15 13 9 4 1 0 0 1 2 3 3 2 1 0 0 0 0 0 0 0 0
0 0 0 0 0 0 0 1 4 9 18 29 38 40 40 42 46 48 44 37 35 36 37 34 28 22 18 15 13 11 8 5 2 0 1 1 2 3 3 1 0 0 0 0 0 0 0 0 0
0 0 0 0 0 0 0 2 8 15 22 31 38 40 40 42 46 46 40 35 33 35 35 32 27 21 16 13 10 9 8 6 2 1 1 1 1 2 2 1 0 0 0 0 0 0 0 0 0
0 0 0 0 0 0 0 1 7 15 22 29 37 41 41 43 44 42 38 34 34 34 32 29 23 17 12 11 10 9 7 4 2 1 1 1 0 1 1 0 0 0 0 0 0 0 0 0 0
0 0 0 0 0 0 0 1 4 11 18 26 35 41 43 42 39 37 35 34 35 35 33 28 21 14 10 10 10 8 5 3 2 1 0 0 0 0 0 0 0 0 0 0 0 0 0 0 0
0 0 0 0 0 0 0 1 4 8 15 25 33 39 42 41 35 33 33 34 36 38 36 30 22 14 10 9 9 7 5 4 3 2 1 0 0 0 0 0 0 0 0 0 0 0 0 0 0
Wind_Speed
5 2 2 1 5 6 7 6 9 11 8 9 11 10 9 8 6 8 4 13 15 11 9 12 13 14 14 14 14 14 14 14 14 13 13 13 13 13 13 13 13 13 14 14 13 13 14 14 14
3 2 1 3 6 6 5 7 13 13 12 12 13 13 11 10 10 11 7 13 14 12 8 10 14 14 14 14 14 13 13 13 13 13 13 13 12 13 13 13 13 13 13 13 13 13 13 13 13
3 2 3 4 4 6 5 8 14 13 11 10 8 8 7 8 10 7 10 15 13 10 8 11 16 15 15 14 13 13 13 13 13 12 12 12 12 12 13 13 13 13 13 12 12 12 12 12 12
0 3 4 5 5 5 8 8 12 13 9 9 9 8 6 7 7 12 17 16 14 10 8 11 16 15 15 14 13 13 13 13 12 12 12 12 12 12 12 12 12 12 12 11 11 11 11 11 11
3 5 6 5 4 6 8 10 10 11 7 9 11 9 6 6 17 19 17 16 14 10 8 10 16 15 15 14 14 13 13 12 12 12 12 12 12 12 12 11 11 11 11 11 10 10 10 10 9
5 5 5 3 4 4 6 10 13 15 14 12 12 9 5 11 18 17 16 14 13 12 9 9 15 15 14 14 13 13 13 12 12 12 12 12 11 11 11 11 11 11 10 10 9 9 8 8 8
4 4 1 2 4 5 6 8 11 13 13 10 10 8 6 10 14 15 14 13 12 11 9 7 8 10 13 14 13 13 12 12 12 12 12 11 11 11 11 10 10 10 10 9 8 8 7 7 7
4 4 2 1 4 4 5 7 8 11 9 12 9 9 9 11 13 14 13 11 11 9 8 7 6 6 6 7 12 12 12 12 12 12 12 11 11 11 11 9 9 9 9 8 8 7 6 5 5
5 5 1 2 4 3 6 9 6 7 9 6 5 7 13 17 17 15 12 10 9 9 7 7 7 6 6 6 9 10 11 11 10 9 12 9 4 5 5 7 9 9 8 7 6 5 4 3 4
5 3 5 4 5 6 7 9 7 7 9 7 10 11 15 16 17 16 15 13 11 11 9 8 8 7 6 6 5 3 4 5 4 3 5 4 3 3 5 7 8 8 7 6 4 3 2 2 2
4 5 3 2 5 8 7 6 5 10 7 10 16 16 15 15 13 13 13 13 12 12 11 9 9 8 6 4 5 3 2 3 3 4 4 4 3 2 2 2 3 2 4 1 1 0 1 0 0
1 3 1 1 4 6 6 6 6 5 8 13 16 17 15 14 12 12 12 11 10 10 10 9 9 8 6 5 5 4 3 3 3 4 5 4 3 3 2 2 2 1 1 1 1 1 1 1 1
1 2 2 0 3 5 7 6 7 6 11 14 15 14 13 12 10 9 10 10 10 9 9 9 9 8 7 6 4 5 4 4 4 4 4 5 4 4 3 2 2 2 2 2 2 2 1 1 1
3 2 4 2 2 3 8 5 6 7 13 14 14 12 11 11 10 9 9 9 9 9 9 8 8 8 7 6 4 4 4 4 4 4 5 6 4 4 4 3 3 2 3 3 3 3 2 1 1
3 4 6 3 1 2 8 4 4 10 13 14 13 12 11 10 10 11 11 10 10 10 9 8 8 7 7 6 5 4 4 4 4 3 5 6 5 5 4 4 3 3 3 3 2 2 1 1 1
5 4 3 6 2 3 7 3 5 11 13 12 11 11 9 8 9 9 9 9 9 9 9 8 8 8 6 5 4 3 3 4 3 3 4 5 6 6 4 4 3 3 3 3 2 2 2 1 1
4 2 4 6 1 3 5 5 7 10 12 11 10 10 9 7 7 7 9 9 9 9 9 7 7 7 6 5 4 4 3 3 3 3 3 4 5 5 4 3 3 3 3 2 2 2 2 2 2
4 4 3 2 2 4 4 3 7 10 11 10 9 9 8 9 8 8 8 9 8 7 7 7 6 6 5 4 3 2 2 2 2 3 3 4 4 5 4 3 3 3 3 2 2 2 2 2 2
4 3 3 3 1 4 4 4 6 9 9 10 9 9 8 8 6 7 8 8 8 6 6 6 6 6 5 3 3 2 2 2 2 2 4 5 5 5 4 3 3 3 3 4 4 3 2 1 2
3 2 3 4 3 4 3 1 3 7 10 12 12 11 10 8 6 7 7 7 7 7 6 5 6 6 5 4 3 2 3 2 2 2 3 4 5 5 5 4 4 4 3 3 3 3 2 1 2
4 2 2 2 4 5 5 5 3 1 3 6 8 9 9 10 10 9 8 7 7 7 7 6 6 6 5 5 3 2 2 1 1 2 2 3 4 5 4 5 4 4 4 3 4 4 4 3 2
4 4 0 2 4 2 3 0 4 1 1 4 6 7 9 10 9 9 8 7 7 7 6 6 6 6 5 5 5 5 4 3 4 3 3 3 4 4 4 5 5 4 4 4 4 4 3 4 2
4 2 1 2 3 3 3 3 5 1 1 3 6 8 9 9 10 10 9 9 7 6 6 5 6 5 5 5 6 5 3 3 2 2 3 3 3 3 4 4 4 4 4 4 4 3 3 3 3
1 6 7 7 6 3 3 3 4 3 5 5 6 8 9 9 9 8 7 7 5 5 5 5 6 5 5 5 5 5 4 4 3 3 3 3 2 2 3 4 4 4 4 4 4 4 4 4 3
6 8 6 6 5 4 3 3 5 4 4 7 9 9 9 9 9 8 8 7 6 6 6 5 6 5 5 5 5 5 5 5 5 4 4 3 2 2 3 4 4 4 4 4 4 4 4 4 4
3 10 8 4 3 5 4 1 4 1 3 5 7 8 10 9 9 9 8 8 7 7 6 6 6 5 5 5 4 4 4 3 3 4 3 3 3 3 3 3 3 3 4 4 3 3 3 3 3
3 4 8 8 1 1 3 2 4 3 6 6 6 6 8 9 10 9 8 7 7 7 7 7 6 5 4 4 4 3 3 3 3 3 3 2 2 2 2 2 2 2 3 3 3 2 2 2 2
7 7 6 6 3 1 3 2 4 3 3 5 6 6 6 7 8 8 7 7 6 6 5 5 6 5 5 4 4 3 3 3 3 3 3 2 2 1 2 2 2 2 1 2 2 2 1 2 1
3 4 6 5 6 6 2 6 6 8 8 8 7 7 7 7 7 6 6 6 6 5 5 5 5 4 4 4 3 3 3 3 3 3 3 2 2 2 2 2 2 2 2 2 2 2 2 2 1
7 7 8 5 3 5 4 6 4 8 7 8 8 8 8 8 7 6 6 6 5 6 6 5 5 4 4 3 3 3 2 3 3 3 3 3 2 2 2 2 3 3 2 2 3 3 2 2 2
Wind_Direction
283 227 171 100 52 55 84 90 92 78 61 60 74 80 78 65 102 127 134 130 129 131 131 128 125 123 120 118 115 111 108 105 103 102 102 103 104 105 104 105 106 106 106 106 106 105 105 105 106
266 213 136 51 74 75 72 92 92 95 112 100 82 79 72 70 88 111 121 132 130 130 129 130 129 126 123 121 118 115 113 110 108 107 106 106 107 107 107 108 109 109 109 109 108 107 107 107 107
240 195 86 64 90 114 101 94 105 104 102 95 91 72 71 105 114 121 135 135 128 125 127 135 132 129 126 123 122 120 118 115 113 112 111 110 110 111 111 112 112 111 111 110 109 110 109 109 109
2 54 49 68 85 111 120 118 117 110 87 82 92 75 72 112 120 132 137 135 127 126 129 137 134 132 131 128 127 125 122 120 117 116 115 114 114 114 114 114 114 114 114 113 111 111 111 111 109
64 60 50 57 76 100 114 119 115 107 97 96 96 95 74 81 119 132 137 136 132 131 133 137 137 136 135 132 130 128 126 124 120 119 119 118 116 117 116 116 116 117 117 116 114 114 115 113 108
49 58 61 69 81 90 102 112 108 105 112 111 107 105 97 123 131 139 139 137 137 137 136 138 140 139 138 136 134 132 130 128 126 125 124 123 122 122 121 120 120 120 120 119 117 117 116 112 105
95 86 120 140 104 108 126 120 118 128 132 135 128 109 119 140 142 139 136 134 135 136 136 134 140 141 142 141 139 137 136 134 133 131 129 128 127 128 126 125 125 125 124 123 120 118 115 107 101
124 92 50 71 108 130 138 122 126 128 125 131 133 130 150 155 140 133 130 130 132 137 141 139 136 135 137 142 145 143 142 140 138 136 135 135 133 132 132 130 131 130 130 130 127 122 118 108 97
94 77 107 180 137 144 129 115 119 105 116 138 124 131 145 141 135 132 130 131 141 145 149 148 146 144 142 149 152 149 148 147 144 142 141 133 118 122 133 143 142 141 139 137 134 127 116 97 86
100 133 213 194 149 139 132 126 130 107 104 95 96 111 132 137 141 144 148 153 157 158 163 163 160 158 159 160 139 142 148 144 139 141 136 129 132 148 149 154 152 150 148 146 150 144 108 71 57
146 185 209 187 142 130 124 121 114 123 130 148 143 144 146 144 147 151 157 162 164 165 168 168 166 166 166 148 148 155 148 150 154 161 154 145 139 144 137 135 144 145 150 135 160 109 356 18 101
166 257 221 163 129 134 132 121 108 132 158 155 150 150 150 153 157 158 157 161 160 160 166 166 166 166 165 154 161 164 163 169 171 173 165 151 145 146 148 146 155 160 161 180 202 244 269 293 211
20 317 350 238 87 126 125 121 121 122 133 138 141 147 153 154 155 157 155 156 154 156 163 167 162 163 161 156 168 168 174 175 178 171 167 161 157 161 165 171 178 190 191 189 193 200 202 213 183
286 339 344 347 25 122 127 129 115 138 139 140 146 154 158 159 156 152 153 154 158 159 160 159 158 160 158 162 166 164 175 173 170 173 171 165 161 163 166 174 183 197 198 192 179 178 177 182 161
329 5 337 294 228 167 112 87 144 151 144 145 155 160 161 162 159 162 164 160 160 160 158 156 157 156 158 159 160 161 170 165 168 173 170 164 161 162 162 168 180 192 191 175 155 162 151 169 164
357 20 322 285 204 187 111 153 174 152 146 149 159 164 161 162 163 161 159 155 156 155 155 161 161 155 156 150 141 145 158 160 165 168 166 164 163 162 157 165 180 182 169 157 150 152 145 161 166
1 324 277 298 221 156 116 163 169 160 153 154 158 162 160 159 159 159 158 155 156 157 156 159 154 155 155 145 136 141 148 156 159 159 162 169 168 163 157 170 180 169 159 160 172 151 157 165 183
269 291 303 283 272 108 103 142 156 165 158 157 156 158 160 167 173 162 153 152 150 151 152 155 150 153 149 138 124 114 119 136 149 163 168 171 170 164 157 167 175 160 153 164 165 167 174 175 181
252 297 308 281 220 93 105 129 161 164 158 156 157 161 168 169 162 148 147 148 145 149 153 157 154 159 154 146 145 142 147 157 171 185 176 177 179 170 162 164 168 165 167 179 175 167 179 190 149
290 322 326 334 25 77 89 68 167 163 175 174 165 164 165 152 146 147 145 148 152 159 159 156 160 163 167 163 156 158 151 166 185 192 184 184 182 178 176 170 176 177 168 173 179 164 157 199 162
301 266 277 312 19 37 71 6 357 19 155 163 158 158 159 160 164 159 154 155 154 161 168 170 166 166 173 160 138 128 105 99 148 193 201 203 193 189 183 179 177 180 175 184 193 181 170 189 217
268 265 241 54 58 326 92 145 297 286 98 165 163 159 162 164 163 159 156 156 163 170 166 162 162 165 172 162 158 166 173 190 206 198 199 204 194 191 187 184 182 185 184 189 200 191 181 171 199
227 262 59 70 79 22 16 115 283 350 141 193 175 168 160 161 160 161 165 166 168 168 164 165 162 167 171 169 170 177 188 201 201 190 182 196 198 193 193 189 186 188 191 194 199 187 182 181 186
112 39 26 42 62 17 278 140 263 238 201 181 181 168 159 157 156 154 156 153 157 162 163 162 165 175 178 178 178 185 190 194 188 182 179 194 197 200 207 201 196 197 196 198 199 194 190 192 189
74 74 29 6 14 268 278 124 244 242 186 165 172 172 166 159 153 150 153 156 160 164 167 166 168 178 183 186 193 198 195 188 187 185 187 193 194 208 218 212 205 204 204 201 196 193 199 192 188
153 130 148 183 219 285 338 189 261 228 140 137 151 158 158 157 156 159 166 165 169 171 172 170 173 181 184 186 193 194 187 184 189 186 179 186 195 208 208 204 206 202 196 200 190 188 197 185 193
147 164 163 134 151 348 317 316 342 46 89 98 121 144 163 161 159 162 166 168 172 173 176 175 175 181 184 179 172 177 174 175 178 176 177 185 192 199 188 185 181 183 176 172 161 162 184 169 185
156 152 94 105 136 256 307 285 219 202 141 126 134 154 164 156 156 160 163 170 173 171 169 164 169 174 174 171 169 164 167 168 167 160 165 165 175 169 152 154 152 147 146 152 147 145 153 136 161
162 128 113 123 149 147 214 270 229 194 173 158 158 160 158 157 161 163 167 171 164 156 156 156 158 156 159 163 160 149 157 158 148 146 155 155 154 149 145 150 135 122 120 128 125 129 128 131 131
164 170 144 149 208 154 156 263 257 182 172 154 158 162 159 160 163 158 161 162 154 152 155 157 157 158 164 164 153 152 147 142 139 146 153 151 147 137 127 116 106 111 113 118 128 138 123 125 118